Location: Poughquag
(41.6090°N, 73.6820°W)
Time: 08:22:15
(UTC-05:00)

SR - Pass Details

Date: 16 December 2023
Orbit: 574 x 868 km, 66.7° (Epoch: 25 February)

Event Time Altitude Azimuth Distance (km) Brightness Sun altitude
Rises 08:59:25 0° 223° (SW) 3,285 ? 14.0°
Reaches altitude 10° 09:01:49 10° 228° (SW) 2,396 ? 14.3°
Maximum altitude 09:07:16 53° 305° (NW) 1,033 ? 14.9°
Drops below altitude 10° 09:13:00 10° 22° (NNE) 2,515 ? 15.6°
Sets 09:15:36 0° 27° (NNE) 3,462 ? 15.9°
